Regional Weather Roundup
Issued by NWS

Home | Current Version | Previous Version | Text Only | Print | Product List | Glossary On
Versions: 1 2 3 4 5 6 7 8 9 10 11 12 13 14 15 16 17 18 19 20 21 22 23 24 25 26 27 28 29 30 31 32 33 34 35 36 37 38 39 40 41 42 43 44 45 46 47 48 49 50
000
ASUS44 KJAN 150410
RWRMS

MISSISSIPPI HOURLY WEATHER ROUNDUP
NATIONAL WEATHER SERVICE JACKSON MS
1100 PM CDT SUN SEP 14 2014

NOTE: "FAIR: INDICATES FEW OR NO CLOUDS BELOW 12,000 FEET WITH NO
SIGNIFICANT WEATHER AND/OR OBSTRUCTIONS TO VISIBILITY.

MSZ001>002-007>008-010>013-018>021-025>028-034>036-150500-
NORTHWEST MISSISSIPPI

CITY           SKY/WX    TMP DP  RH WIND       PRES   REMARKS
CLARKSDALE       N/A     64  63  94 CALM      30.18S
CLEVELAND      FAIR      67  63  87 N3        30.16S
GREENWOOD      PTCLDY    68  65  90 CALM      30.15S
GREENVILLE     CLEAR     69  60  73 N6        30.15R
GRENADA        FAIR      70  61  73 NE5       30.16S
OLIVE BRANCH   CLEAR     64  63  94 NE5       30.19S
OXFORD         FAIR      64  61  88 CALM      30.19S
TUNICA         CLEAR     63  61  94 N5        30.18S
$$

MSZ003>006-009-014>017-022>024-029>033-037>039-150500-
NORTHEAST MISSISSIPPI

CITY           SKY/WX    TMP DP  RH WIND       PRES   REMARKS
COLUMBUS AFB   CLEAR     69  63  80 NW3       30.15R
CORINTH        FAIR      61  59  94 CALM      30.18S
GOLDN TRIANGLE CLEAR     72  63  73 N6        30.16S
STARKVILLE     FAIR      70  63  78 CALM      30.15S
TUPELO         CLEAR     66  62  87 NE7       30.16S
$$

MSZ040-058-150500-
CENTRAL MISSISSIPPI

CITY           SKY/WX    TMP DP  RH WIND       PRES   REMARKS
JACKSON INTL   CLEAR     73  69  87 CALM      30.13S
JACKSON HAWKNS CLEAR     75  68  78 CALM      30.14R
MERIDIAN KEY   CLEAR     73  68  84 CALM      30.13S
MERIDIAN NAS   CLEAR     75  65  70 N5        30.14S
RAYMOND        FAIR      70  64  83 CALM      30.13S HAZE
VICKSBURG      CLEAR     68  66  93 CALM      30.13S
$$

MSZ059>079-150500-
SOUTH MISSISSIPPI

CITY           SKY/WX    TMP DP  RH WIND       PRES   REMARKS
BROOKHAVEN     FAIR      72  72 100 CALM      30.15S FOG
HATTIESBURG    PTCLDY    77  73  87 CALM      30.12R
MCCOMB         PTCLDY    77  70  79 N5        30.12S
NATCHEZ        CLEAR     70  68  94 CALM      30.14S
PINE BELT      CLEAR     75  70  83 N5        30.13S
$$

MSZ080>082-150500-
COASTAL MISSISSIPPI

CITY           SKY/WX    TMP DP  RH WIND       PRES   REMARKS
BILOXI         CLEAR     78  74  87 E2        30.10S
PASCAGOULA     CLEAR     74  73  97 N3        30.10S
GULFPORT       CLEAR     81  74  79 CALM      30.09S
$$



USA.gov is the U.S. government's official web portal to all federal, state and local government web resources and services.